STARLINK-3866, 52500

Orbit data source: Space-Track

STARLINK-3866, 52500 is a payload satellite owned by SpaceX/Seattle (US) in LEO that was launched on Fri, 06 May 2022 UTC via an FALCON 9 launch vehicle from the Air Force Eastern Test Range (AFETR). Payload-class satellites include a variety of spacecraft equipped with specific instruments for various scientific and technological missions. These include communications satellites like Starlink; space stations such as the ISS; scientific satellites like the Hubble; Earth observation satellites from companies like Planet Labs, Umbra, and HawkEye 360; GPS; miniature CubeSats for education and research; and military/defense satellites.

Loading next visibility...
Identifier
52500, 2022-049BB
Orbit
LEO
Country
Flag of USUS
Related business
Manufacturer
SpaceX/Seattle
Mission
Operational Commercial Communications
Bus & Motor
STARLINK, Unknown motor
Mass
297 kg wet, ~220 kg dry
Launch date (UTC)
2022-05-06 (4 years ago)
Launch vehicle
FALCON 9
Launch site
Air Force Eastern Test Range (AFETR)
Object type
Payload
Rocket body
Debris
Shape & HBR
Box + 1 Pan, 10.1 m
Radar Cross Section
13.562 m², Large (>1 m²)

Expand to show TLE details & history
Last TLE update: 6 hours ago

TLE from 6 hours ago
0 STARLINK-3866
1 52500U 22049BB  26220.16668980  .00040344  00000-0  23273-2 0  9999
2 52500  53.1600  78.6793 0003571 106.7584  16.0050 15.11993157  5780
Epoch: 2026-08-08T04:00Z
TLE epoch observation values (Epoch: 2026-08-08T04:00:01.998Z)
Latitude
42.42652°
Longitude
-160.93089°
Altitude
531.868 km
Speed
7.603 km/s
True Right ascension
14h 23m 02s
True Declination
42° 14' 59"
Sunlit
Object was in daylight at epoch
Visualization orbit readout
Latitude
Unknown
Longitude
Unknown
Altitude
Unknown
Speed
Unknown
Apparent Right ascension
Unknown
Apparent Declination
Unknown
Sunlit
N/A
Visualization observer readout
Local Sidereal Time
00:20:29
Azimuth
Unknown
Elevation
Unknown
Doppler factor
Unknown
Orbital elements
Apogee altitude
532.844 km
Perigee altitude
527.91 km
Semi-major axis
6,908.514 km
Eccentricity
0.00036
Inclination
53.16°
RAAN
78.6793°
Arg. of periapsis
106.7584°
True anomaly
16.01629°
Mean anomaly
16.005°
Eccentric anomaly
16.01064°
Mean motion
3.77978 °/min
Orbital period
95.24 mins
BSTAR
0.0023273
Loading maneuver chart data...
Computing Atmospheric mass density...
Loading historical data...
Loading historical data...
Loading historical data...
Loading historical data...
Loading historical data...
Loading historical data...
Loading historical data...

Documentation

Showing up to 5 results
|